Notices

What's New in latest Release from April 7th, 2021:

- Updated Glossary, including Speed of Maximum Gust, and Total Hourly Precipitation

- Updated national and regional climate services offices contacts and prices information

- Addition of station inventory lists for 1981-2010, 1971-2000, and 1961-1990 Normals.

If you haven't already, please take our survey and provide feedback about our website: https://eccc.sondage-survey.ca/f/LanguageSelection.aspx?s=442ca660-fcf1-47c0-95a9-59707d6fd709

Hourly Data Report for April 14, 2006

TORONTO CITY
ONTARIO

43°40'00.000" N
79°24'00.000" W
112.50 m
6158355
71508
XTO

Download Data

Hourly Data (April 2006)
Hourly Data Report for April 14, 2006
TIME
LST
Temp Definition
°C
Dew Point Definition
°C
Rel Hum Definition
%
Precip. Amount Definition
mm

Wind Dir Definition
10's deg

Wind Spd Definition
km/h
Visibility Definition
km
Stn Press Definition
kPa
Hmdx Definition


Wind Chill Definition


Weather Definition


00:00 11.8 8.8 82   LegendMM LegendMM   99.91     LegendNANA
01:00 11.5 8.8 83   LegendMM LegendMM   99.83     LegendNANA
02:00 11.5 9.0 85   LegendMM LegendMM   99.75     LegendNANA
03:00 11.7 9.2 85   LegendMM LegendMM   99.76     LegendNANA
04:00 11.9 9.4 85   LegendMM LegendMM   99.67     LegendNANA
05:00 11.5 8.7 83   LegendMM LegendMM   99.68     LegendNANA
06:00 11.2 8.6 84   LegendMM LegendMM   99.57     LegendNANA
07:00 8.2 7.2 93   LegendMM LegendMM   99.59     LegendNANA
08:00 7.6 7.1 97   LegendMM LegendMM   99.55     LegendNANA
09:00 7.7 7.2 97   LegendMM LegendMM   99.44     LegendNANA
10:00 7.4 6.9 97   LegendMM LegendMM   99.37     LegendNANA
11:00 7.3 6.9 97   LegendMM LegendMM   99.31     LegendNANA
12:00 7.6 7.1 97   LegendMM LegendMM   99.17     LegendNANA
13:00 8.7 7.9 95   LegendMM LegendMM   99.11     LegendNANA
14:00 10.8 8.6 86   LegendMM LegendMM   99.04     LegendNANA
15:00 11.8 8.8 82   LegendMM LegendMM   98.90     LegendNANA
16:00 10.1 8.2 88   LegendMM LegendMM   98.86     LegendNANA
17:00 10.8 9.2 90   LegendMM LegendMM   98.81     LegendNANA
18:00 10.7 9.5 92   LegendMM LegendMM   98.78     LegendNANA
19:00 10.4 9.6 95   LegendMM LegendMM   98.74     LegendNANA
20:00 10.5 9.9 96   LegendMM LegendMM   98.65     LegendNANA
21:00 9.8 9.3 97   LegendMM LegendMM   98.58     LegendNANA
22:00 8.4 8.1 98   LegendMM LegendMM   98.45     LegendNANA
23:00 9.3 9.2 99   LegendMM LegendMM   98.55     LegendNANA

Notes on Data Quality.

Legend

  • E = Estimated
  • M = Missing
  • NA = Not Available*
  • [empty] = Indicates an unobserved value
Date modified: